User: anonymous   Login
Location: Bluff Heights
(33.7692°N, 118.1592°W)
Time: 12:04:51
(UTC+00:00)
Language:

Explorer 11/Cluster Stage 4 - Orbit

View from above orbital plane
View from above orbital plane
View from above satellite
View from above satellite

Ground track
Ground track

The orbit data is extracted from the following two-line orbital elements,

1 00107U 61013A   21214.81549442  .00000381  00000-0  28398-4 0  9992
2 00107  28.7929  17.7094 0545544 262.5832  91.2456 14.09272321 24307
Epoch (UTC): 02 August 2021 19:34:18
Eccentricity: 0.0545544
inclination: 28.7929°
perigee height: 467 km
apogee height: 1257 km
right ascension of ascending node: 17.7094°
argument of perigee: 262.5832°
revolutions per day: 14.09272321
mean anomaly at epoch: 91.2456°
orbit number at epoch: 2430

The dashed part of the orbit path shows where the satellite is in the earth's shadow,  

DLR